Simultaneous Nadir Overpasses (SNOs) Predictions

Prediction of SNOs between GOES-15 and METOP-B Satellite Orbit:

Table of predicted SNOs for the next 14.0 days since TLE Epoch: 8/5/2023
Index Date Time (GOES-15) GOES-15 Lat,Lon METOP-B Lat,Lon Distance(km) Time Diff (sec)
1 08/05/2023 22:53:49 0.02, 155.29 -0.67, 158.37 350.88 80
2 08/07/2023 11:15:34 0.02, 153.88 -0.03, 153.70 21.02 80
3 08/08/2023 23:34:31 -0.06, 152.31 0.69, 149.05 371.96 80
4 08/09/2023 23:11:15 -0.01, 151.35 -0.62, 154.00 303.24 80
5 08/11/2023 11:33:00 0.05, 149.93 -0.08, 149.33 68.29 80
6 08/12/2023 23:51:57 -0.09, 148.37 0.72, 144.69 418.95 80
7 08/13/2023 23:28:40 -0.05, 147.40 -0.53, 149.65 256.58 80
8 08/15/2023 11:50:25 0.09, 145.98 -0.15, 144.98 114.11 80
9 08/17/2023 00:09:23 -0.13, 144.40 0.79, 140.33 463.77 80
10 08/17/2023 23:46:06 -0.09, 143.42 -0.53, 145.28 212.52 80
